[[{"header":{"parameterUnit":"m.s-1","parameterCategory":1,"la1":30.2991,"la2":30.254,"lo1":-89.0895,"lo2":-89.0444,"dy":0.0017,"dx":0.0017,"nx":28,"ny":28,"refTime":"2023-10-28T09:00:00:Z","depth":0,"parameterNumber":2,"parameterNumberName":"U-component_of_WINDS"},"data":[0,0,0,0,0,0,0,0,0,0,0,0,0,0,0,0,0,0,0,0,0,0,0,0,0,0,0,0,0,0,0,0,0,0,0,0,0,0,0,0,0,0,0,0,0,0,0,0,0,0,0,0,0,0,0,0,0,0,0.0458,0.0458,0,0.0457,0.0457,0.0457,0.0461,0.0461,0.0461,0.0461,0.0459,0.0459,0.0459,0,0,0,0,0,0,0,0,0,0,0,0,0,0.0461,0.0461,0.0458,0.0458,0.0458,0.0457,0.0457,0.0457,0.0461,0.0461,0.0461,0.0461,0.0459,0.0459,0.0459,0,0,0,0,0,0,0,0,0,0,0,0,0,0.046,0.0461,0.0458,0.046,0.046,0.0457,0.0457,0.0457,0.0461,0.0461,0.0461,0.0461,0.0459,0.0459,0.0459,0.0453,0,0,0.0458,0.0458,0,0,0,0,0,0,0,0,0.046,0.046,0.0459,0.046,0.046,0.0459,0.0457,0.0455,0.0461,0.046,0.0461,0.0461,0.0459,0.0459,0.0458,0.0453,0.0453,0.0458,0.0458,0.0457,0.0457,0,0,0,0,0,0,0,0.046,0.046,0.0457,0.0459,0.046,0.046,0.046,0.0457,0.0458,0.046,0.0461,0.0461,0.0459,0.0458,0.0458,0.0453,0.0458,0.0458,0.0457,0.0457,0.0442,0.0441,0,0,0,0,0,0,0.046,0.046,0.0457,0.0457,0.046,0.046,0.046,0.0459,0.0459,0.0459,0.046,0.0461,0.0459,0.0458,0.0458,0.045,0.0457,0.0457,0.0457,0.0442,0.0442,0.0441,0,0,0,0,0,0,0.046,0.046,0.0457,0.0459,0.0458,0.0459,0.0459,0.0459,0.0458,0.0459,0.0459,0.046,0.0459,0.0458,0.0454,0.045,0.0457,0.0457,0.0442,0.0442,0.0441,0.0436,0,0,0,0,0,0,0.046,0.046,0.0458,0.0458,0.0458,0.0454,0.0459,0.0459,0.0458,0.0458,0.0458,0.0458,0.0459,0.0454,0.0454,0.045,0.0457,0.0442,0.0442,0.0442,0.0436,0.0435,0.0434,0,0,0,0,0,0.046,0.0457,0.0458,0.0458,0.0457,0.0454,0.0454,0.0455,0.0458,0.0456,0.0456,0.0458,0.0451,0.0454,0.0453,0.0449,0.0443,0.0442,0.0442,0.0437,0.0436,0.0434,0,0,0,0,0,0,0.0456,0.0457,0.0459,0.0455,0.0455,0.0455,0.0453,0.0454,0.0453,0.0453,0.0454,0.0454,0.0449,0.0449,0.0452,0.0443,0.0447,0.0446,0.0444,0.0442,0.0442,0.0441,0.0456,0,0,0,0,0,0.0455,0.0454,0.0454,0.0451,0.0451,0.0452,0.0451,0.0452,0.0451,0.045,0.045,0.0449,0.0446,0.0444,0.0442,0.0436,0.0435,0.0433,0.0432,0.0431,0.0431,0.0426,0.0424,0.0439,0.0439,0.0439,0,0,0.0453,0.0453,0.0452,0.045,0.045,0.0447,0.0451,0.0449,0.0447,0.045,0.0446,0.0445,0.0444,0.0438,0.0436,0.0438,0.0426,0.0431,0.043,0.043,0.0425,0.0424,0.0422,0.0439,0.0439,0.0439,0,0,0.0447,0.0447,0.0444,0.0443,0.0443,0.0443,0.0442,0.0442,0.0441,0.0437,0.0439,0.0436,0.0432,0.043,0.0429,0.042,0.0422,0.0419,0.0414,0.041,0.0408,0.0407,0.0403,0.0402,0.0419,0.0419,0.0419,0,0.0444,0.0441,0.0442,0.0439,0.0438,0.0441,0.0437,0.0436,0.0434,0.0433,0.0435,0.0428,0.0428,0.0421,0.0419,0.0418,0.0416,0.0419,0.0409,0.0407,0.0406,0.0402,0.0401,0.0418,0.0418,0.0418,0.0418,0,0.0436,0.0434,0.0431,0.043,0.0428,0.0425,0.0425,0.0423,0.0423,0.0423,0.0418,0.0417,0.0414,0.0412,0.0413,0.0405,0.0406,0.0408,0.0412,0.0405,0.0401,0.0399,0.0418,0.0418,0.0418,0.0418,0,0,0.0429,0.0427,0.0426,0.0424,0.0423,0.0421,0.0417,0.0413,0.0411,0.0409,0.0405,0.0401,0.0402,0.04,0.0401,0.0397,0.0388,0.04,0.0399,0.0397,0.0378,0.0376,0.0374,0.0389,0.0389,0.0389,0.0378,0,0.0422,0.0416,0.0417,0.041,0.0407,0.0409,0.0405,0.0403,0.0402,0.0399,0.0398,0.0394,0.0397,0.0396,0.0392,0.039,0.0385,0.0391,0.0384,0.0384,0.0384,0.0372,0.037,0.0359,0.0376,0.0376,0.0376,0,0.0414,0.0412,0.0405,0.0402,0.0401,0.0398,0.0394,0.0391,0.0388,0.0388,0.0385,0.0386,0.038,0.0384,0.0376,0.038,0.0377,0.0376,0.0376,0.0375,0.0379,0.037,0.0356,0.0354,0.0374,0.0374,0.0374,0,0.0408,0.0404,0.0398,0.0397,0.0394,0.0391,0.039,0.0387,0.0385,0.0381,0.0379,0.0375,0.0372,0.0368,0.0367,0.0371,0.0358,0.0363,0.0357,0.0357,0.0354,0.0354,0.0339,0.0353,0.0353,0.0353,0.0354,0,0.0401,0.0397,0.0395,0.0392,0.0387,0.0387,0.0381,0.038,0.0377,0.0372,0.0373,0.0369,0.0368,0.0363,0.0362,0.0355,0.0354,0.0352,0.0352,0.0352,0.0352,0.035,0.035,0.0353,0.0353,0.0353,0.0353,0,0.0394,0.0393,0.0387,0.0384,0.0384,0.0379,0.0376,0.0373,0.0371,0.0366,0.0364,0.0362,0.0356,0.0355,0.0348,0.0347,0.0337,0.0338,0.0339,0.0338,0.0332,0.0332,0.0314,0.0311,0.0328,0.0328,0.0328,0,0.0389,0.0385,0.0382,0.0379,0.0377,0.0373,0.037,0.0369,0.0366,0.0361,0.0357,0.0352,0.0347,0.0337,0.0334,0.0328,0.0328,0.0323,0.0328,0.0327,0.0327,0.0327,0.0326,0.0322,0.0321,0.0321,0.0321,0,0.038,0.0379,0.0375,0.0371,0.0367,0.0363,0.036,0.0357,0.0356,0.0352,0.0346,0.0342,0.0334,0.0328,0.0321,0.0319,0.0319,0.0319,0.0317,0.0317,0.0317,0.0315,0.0335,0.032,0.032,0.032,0.032,0.032,0.0373,0.0369,0.0366,0.0361,0.0358,0.0354,0.035,0.0347,0.0342,0.0336,0.0336,0.0329,0.0324,0.0315,0.0312,0.0306,0.0307,0.0305,0.0304,0.0303,0.0302,0.0318,0.0305,0.0305,0.0305,0.0305,0.0305,0,0.0363,0.0361,0.0356,0.0351,0.0346,0.0347,0.0342,0.0338,0.0332,0.0328,0.0323,0.0314,0.0308,0.0304,0.0297,0.0292,0.0292,0.029,0.029,0.0289,0.0302,0.0303,0.029,0.029,0.029,0.029,0.029,0.029,0.0358,0.0351,0.0349,0.034,0.0337,0.0331,0.0328,0.0323,0.032,0.0311,0.0305,0.0302,0.0298,0.029,0.0283,0.0282,0.0279,0.0276,0.0275,0.0287,0.0288,0.029,0.0292,0.0276,0.0276,0.0263,0.0263,0.0263]},{"header":{"parameterUnit":"m.s-1","parameterCategory":1,"la1":30.2991,"la2":30.254,"lo1":-89.0895,"lo2":-89.0444,"dy":0.0017,"dx":0.0017,"nx":28,"ny":28,"refTime":"2023-10-28T09:00:00:Z","depth":0,"parameterNumber":3,"parameterNumberName":"V-component_of_WINDS"},"data":[0,0,0,0,0,0,0,0,0,0,0,0,0,0,0,0,0,0,0,0,0,0,0,0,0,0,0,0,0,0,0,0,0,0,0,0,0,0,0,0,0,0,0,0,0,0,0,0,0,0,0,0,0,0,0,0,0,0,1.3397,1.3398,0,1.3521,1.3523,1.3524,1.3541,1.3539,1.3538,1.3537,1.3668,1.3672,1.3677,0,0,0,0,0,0,0,0,0,0,0,0,0,1.3176,1.318,1.3396,1.3398,1.34,1.3521,1.3523,1.3524,1.3541,1.3539,1.3538,1.3537,1.3666,1.3672,1.3677,0,0,0,0,0,0,0,0,0,0,0,0,0,1.3284,1.3182,1.3396,1.3422,1.3426,1.3521,1.3523,1.3525,1.3541,1.3539,1.3538,1.3536,1.3664,1.3671,1.3678,1.3756,0,0,1.3699,1.3702,0,0,0,0,0,0,0,0,1.3278,1.3292,1.3417,1.3421,1.3425,1.3513,1.3493,1.3602,1.3542,1.3498,1.3537,1.3535,1.3618,1.3629,1.3656,1.3762,1.3768,1.37,1.3704,1.3707,1.3709,0,0,0,0,0,0,0,1.327,1.3287,1.3446,1.3419,1.3424,1.3429,1.3442,1.3514,1.3566,1.3501,1.3503,1.3517,1.362,1.3649,1.3659,1.377,1.3699,1.3705,1.371,1.3712,1.3948,1.395,0,0,0,0,0,0,1.3257,1.328,1.3442,1.345,1.3345,1.3435,1.3449,1.3487,1.3566,1.3576,1.3518,1.3517,1.3638,1.3651,1.3664,1.3762,1.3707,1.3713,1.3717,1.3946,1.3949,1.3951,0,0,0,0,0,0,1.3253,1.3272,1.3437,1.3365,1.3387,1.344,1.3482,1.349,1.352,1.3579,1.3588,1.3539,1.3638,1.3654,1.3733,1.3767,1.3716,1.3722,1.3944,1.3947,1.395,1.3958,0,0,0,0,0,0,1.3246,1.327,1.3299,1.3366,1.3391,1.3503,1.3484,1.3494,1.3531,1.3531,1.36,1.361,1.3637,1.3723,1.374,1.3775,1.3728,1.3941,1.3945,1.3949,1.3955,1.3961,1.3966,0,0,0,0,0,1.3238,1.3297,1.3301,1.332,1.3428,1.3505,1.3519,1.3549,1.3534,1.3565,1.3603,1.3608,1.376,1.3731,1.375,1.3788,1.3939,1.3944,1.3949,1.3952,1.396,1.3966,0,0,0,0,0,0,1.3233,1.3306,1.3311,1.3392,1.3442,1.3508,1.3547,1.3555,1.3611,1.3609,1.3644,1.366,1.3738,1.3771,1.3737,1.3869,1.3848,1.3857,1.3844,1.3852,1.3857,1.3849,1.3733,0,0,0,0,0,1.3241,1.3297,1.3357,1.3424,1.3448,1.3493,1.3528,1.3546,1.36,1.3621,1.3665,1.3718,1.3778,1.3817,1.3875,1.3959,1.3976,1.3995,1.4001,1.4005,1.4013,1.4062,1.4072,1.3967,1.3967,1.3967,0,0,1.3259,1.3306,1.3339,1.3424,1.3465,1.3523,1.3511,1.3572,1.3616,1.3631,1.3709,1.3742,1.3804,1.3886,1.3925,1.3916,1.4045,1.4011,1.4014,1.402,1.4068,1.4078,1.4087,1.397,1.397,1.3969,0,0,1.3322,1.3361,1.3422,1.3463,1.3525,1.3554,1.3569,1.3633,1.3656,1.3734,1.3747,1.38,1.3902,1.3946,1.3981,1.4061,1.4069,1.4079,1.4109,1.4156,1.4165,1.4172,1.4202,1.4213,1.4086,1.4086,1.4086,0,1.3336,1.3423,1.3452,1.3513,1.3551,1.3566,1.3629,1.3667,1.3746,1.3772,1.3761,1.389,1.3932,1.4026,1.4046,1.4073,1.4092,1.4072,1.4161,1.4169,1.4176,1.4206,1.4217,1.4087,1.4087,1.4087,1.4087,0,1.3439,1.3499,1.354,1.3615,1.3657,1.3718,1.3758,1.3798,1.3813,1.3844,1.3924,1.3975,1.4045,1.4068,1.4084,1.4165,1.4158,1.4153,1.4134,1.4187,1.4215,1.4226,1.4089,1.4088,1.4088,1.4088,0,0,1.3502,1.3592,1.3607,1.3642,1.3711,1.3759,1.3821,1.3889,1.3923,1.3976,1.4031,1.4117,1.4114,1.4154,1.4174,1.4216,1.4278,1.4207,1.4209,1.4219,1.4373,1.4377,1.4389,1.4283,1.4285,1.4287,1.4368,0,1.3574,1.3685,1.3714,1.3809,1.3866,1.3882,1.3937,1.3986,1.4017,1.4071,1.4105,1.4167,1.4156,1.4181,1.4223,1.4261,1.431,1.4256,1.4336,1.4338,1.4321,1.4404,1.4408,1.4483,1.4379,1.4381,1.4383,0,1.3673,1.3728,1.3829,1.3892,1.3917,1.3966,1.4031,1.4081,1.4138,1.4158,1.4203,1.422,1.4287,1.4263,1.4358,1.432,1.4355,1.4379,1.4383,1.4393,1.4365,1.4418,1.4507,1.4519,1.44,1.4398,1.4397,0,1.3711,1.381,1.3884,1.3913,1.3988,1.4022,1.4055,1.411,1.415,1.4206,1.4233,1.4296,1.4332,1.4382,1.4416,1.4395,1.4509,1.4487,1.4529,1.4528,1.4553,1.4551,1.4651,1.4572,1.4572,1.4572,1.4572,0,1.3789,1.3851,1.3902,1.3948,1.4018,1.405,1.4119,1.4153,1.4202,1.4255,1.4272,1.4323,1.4364,1.442,1.4447,1.4522,1.4538,1.4557,1.4564,1.4556,1.4554,1.458,1.4577,1.4575,1.4574,1.4574,1.4573,0,1.3844,1.3881,1.3962,1.4027,1.4045,1.4094,1.415,1.4195,1.4226,1.4294,1.4312,1.4362,1.4429,1.4467,1.4552,1.457,1.4654,1.4658,1.4635,1.4638,1.4678,1.4675,1.48,1.4819,1.4726,1.4727,1.4727,0,1.3892,1.394,1.401,1.4046,1.408,1.4138,1.4178,1.4212,1.4254,1.4322,1.436,1.4428,1.4484,1.4591,1.4635,1.47,1.4707,1.4746,1.4717,1.4708,1.471,1.4707,1.4713,1.4752,1.4752,1.4753,1.4754,0,1.3975,1.399,1.4047,1.411,1.4157,1.4209,1.426,1.4289,1.4332,1.4378,1.4446,1.4489,1.4576,1.4644,1.4712,1.4748,1.4759,1.4762,1.4776,1.477,1.4755,1.4765,1.465,1.476,1.4759,1.4759,1.4758,1.4758,1.4029,1.4073,1.4129,1.4192,1.4234,1.4281,1.4328,1.4365,1.4422,1.4494,1.4511,1.4584,1.4641,1.4734,1.4771,1.483,1.4823,1.4842,1.4847,1.4852,1.4854,1.4744,1.4842,1.4842,1.4842,1.4842,1.4842,0,1.4114,1.4151,1.4208,1.4279,1.4329,1.4333,1.439,1.4432,1.4495,1.4547,1.4602,1.4681,1.4747,1.4797,1.4865,1.4902,1.4909,1.4919,1.4917,1.4926,1.4855,1.4837,1.4912,1.4912,1.4912,1.4912,1.4912,1.4912,1.4164,1.4239,1.4262,1.4358,1.4395,1.4465,1.4498,1.4543,1.4584,1.4672,1.4726,1.4758,1.481,1.4881,1.4943,1.4956,1.4981,1.499,1.5004,1.4938,1.493,1.4923,1.4907,1.4995,1.4995,1.5071,1.5071,1.5072]}]]